CST,Max TemperatureF,Mean TemperatureF,Min TemperatureF,Max Dew PointF,MeanDew PointF,Min DewpointF,Max Humidity, Mean Humidity, Min Humidity, Max Sea Level PressureIn, Mean Sea Level PressureIn, Min Sea Level PressureIn, Max VisibilityMiles, Mean VisibilityMiles, Min VisibilityMiles, Max Wind SpeedMPH, Mean Wind SpeedMPH, Max Gust SpeedMPH,PrecipitationIn, CloudCover, Events, WindDirDegrees
2011-11-1,67,56,45,45,39,35,80,57,34,30.00,29.89,29.84,10,10,8,21,9,25,0.00,0,,275
2011-11-2,48,41,34,37,34,28,92,71,50,30.30,30.18,30.02,10,7,2,28,21,33,0.66,8,Rain-Snow-Thunderstorm,5
2011-11-3,52,39,25,27,24,21,84,57,30,30.41,30.33,30.28,10,10,10,18,7,24,0.00,0,,350
2011-11-4,56,38,19,36,29,17,88,66,43,30.30,30.17,30.00,10,10,10,23,10,30,0.00,0,,164
2011-11-5,60,50,40,42,38,36,86,66,46,29.99,29.78,29.59,10,10,10,33,21,41,0.00,0,,165
2011-11-6,57,44,30,43,32,25,71,51,30,30.11,29.87,29.54,10,10,10,32,10,40,0.00,0,,233
2011-11-7,55,39,23,43,33,21,96,66,35,30.24,30.16,30.09,10,8,4,18,7,24,0.80,4,Rain,43
2011-11-8,45,43,40,41,37,28,96,78,60,30.13,30.08,30.04,10,8,2,35,15,40,0.15,8,Rain,23
2011-11-9,51,42,32,28,22,14,72,48,24,30.34,30.27,30.14,10,10,10,29,12,37,0.00,0,,313
2011-11-10,49,36,23,23,19,16,75,52,28,30.37,30.24,30.00,10,10,10,15,6,20,0.00,0,,243
2011-11-11,65,46,26,31,27,23,85,55,24,29.97,29.81,29.72,10,10,10,10,5,13,0.00,0,,194
2011-11-12,57,43,29,38,35,27,92,70,47,29.70,29.52,29.33,10,10,10,18,6,21,0.00,0,,178
2011-11-13,55,46,37,39,33,21,76,57,37,29.60,29.47,29.26,10,10,10,33,11,44,0.00,1,,248
2011-11-14,59,48,37,35,29,23,85,55,25,29.71,29.64,29.55,10,10,10,17,9,22,0.00,1,,226
2011-11-15,55,39,22,32,25,16,63,48,32,30.11,29.85,29.63,10,10,10,23,11,26,0.00,0,,328
2011-11-16,45,33,20,27,17,8,75,49,22,30.38,30.27,30.13,10,10,10,21,6,26,0.00,3,,310
2011-11-17,50,33,15,24,20,14,84,54,24,30.38,30.17,29.86,10,10,10,25,13,32,0.00,0,,194
2011-11-18,59,48,37,36,31,24,92,66,39,29.76,29.69,29.63,10,10,10,24,15,30,0.00,0,,189
2011-11-19,47,36,25,43,29,18,100,88,75,30.23,29.82,29.51,10,10,7,32,13,37,0.00,7,,8
2011-11-20,36,27,17,21,17,13,91,72,52,30.40,30.32,30.24,10,10,10,17,8,21,0.00,2,,6
2011-11-21,37,26,15,32,23,12,92,81,70,30.32,30.22,30.11,10,8,6,8,2,17,0.00,5,,43
2011-11-22,45,37,28,34,33,27,100,83,65,30.17,30.10,30.05,10,6,0,8,3,13,0.00,5,Fog,7
2011-11-23,58,41,23,34,29,23,100,70,39,30.20,30.15,30.09,10,7,1,9,5,10,0.00,0,,166
2011-11-24,72,52,31,47,38,27,100,64,27,30.08,29.92,29.81,10,10,5,29,14,36,0.00,0,,184
2011-11-25,58,52,46,49,46,40,93,80,67,29.80,29.72,29.64,10,7,4,23,11,32,0.05,5,Rain,193
2011-11-26,49,42,34,41,28,17,79,59,39,30.29,30.07,29.75,10,9,5,38,21,47,0.00,3,,337
2011-11-27,42,28,14,18,13,9,74,52,29,30.37,30.31,30.25,10,10,10,22,8,26,0.00,0,,340
2011-11-28,50,31,12,30,16,9,84,54,24,30.23,30.17,30.07,10,10,9,21,5,28,0.00,0,,260
2011-11-29,46,33,19,30,18,6,85,54,22,30.42,30.32,30.24,10,10,9,22,8,28,0.00,0,,357
2011-11-30,52,35,18,25,19,11,68,47,26,30.21,30.02,29.85,10,10,10,26,9,33,0.00,0,,179